ENY3605 MYGF-KMIA

Flight info

Callsign ENY3605
Flight time N/A
Altitude 16000
Route JOAAN2 MUNRO BNFSH2
Aircraft E75L/M-SDE3GILORVW/S

Departure

Time 2026-04-26 15:07
Airport Grand Bahama International Airport (MYGF)

Arrival

Time N/A
Airport Miami International Airport (KMIA)
Time Latitude Longitude Altitude Speed Heading
2026-04-26 14:45 26.54821 -78.70228 12 ft 0 kts 206°
2026-04-26 15:01 26.54820 -78.70229 12 ft 0 kts 225°
2026-04-26 15:02 26.54823 -78.70235 12 ft 2 kts 320°
2026-04-26 15:02 26.54850 -78.70240 12 ft 5 kts 354°
2026-04-26 15:02 26.54898 -78.70249 12 ft 8 kts 346°
2026-04-26 15:02 26.54963 -78.70246 12 ft 10 kts 36°
2026-04-26 15:03 26.55028 -78.70184 12 ft 13 kts 40°
2026-04-26 15:03 26.55117 -78.70099 12 ft 22 kts 41°
2026-04-26 15:03 26.55254 -78.69967 12 ft 28 kts 44°
2026-04-26 15:03 26.55405 -78.69817 12 ft 29 kts 42°
2026-04-26 15:04 26.55557 -78.69669 12 ft 29 kts 42°
2026-04-26 15:04 26.55714 -78.69517 12 ft 29 kts 41°
2026-04-26 15:04 26.55836 -78.69344 12 ft 29 kts 61°
2026-04-26 15:04 26.55937 -78.69130 12 ft 30 kts 65°
2026-04-26 15:05 26.56041 -78.68923 12 ft 30 kts 60°
2026-04-26 15:05 26.56074 -78.68855 12 ft 30 kts 63°
2026-04-26 15:05 26.56292 -78.68713 12 ft 23 kts 59°
2026-04-26 15:05 26.56370 -78.68549 12 ft 23 kts 64°
2026-04-26 15:06 26.56451 -78.68383 12 ft 24 kts 63°
2026-04-26 15:06 26.56535 -78.68216 12 ft 24 kts 62°
2026-04-26 15:06 26.56587 -78.68092 12 ft 5 kts
2026-04-26 15:06 26.56591 -78.68102 12 ft 2 kts 240°
2026-04-26 15:07 26.56182 -78.68916 12 ft 120 kts 241°
2026-04-26 15:07 26.55767 -78.69793 183 ft 144 kts 242°
2026-04-26 15:07 26.55375 -78.70696 867 ft 130 kts 242°
2026-04-26 15:08 26.54943 -78.71620 1254 ft 140 kts 238°
2026-04-26 15:08 26.54422 -78.72602 1664 ft 150 kts 237°
2026-04-26 15:08 26.53980 -78.73446 1897 ft 147 kts 237°
2026-04-26 15:08 26.53428 -78.74517 1693 ft 142 kts 238°
2026-04-26 15:09 26.52977 -78.75409 1640 ft 128 kts 239°
2026-04-26 15:09 26.52582 -78.76361 1289 ft 138 kts 249°
2026-04-26 15:09 26.52455 -78.77412 991 ft 146 kts 272°
2026-04-26 15:09 26.52617 -78.78635 1189 ft 159 kts 279°
2026-04-26 15:10 26.52830 -78.79726 1766 ft 155 kts 278°
2026-04-26 15:10 26.52959 -78.80559 2039 ft 167 kts 275°
2026-04-26 15:10 26.53095 -78.82220 3029 ft 160 kts 272°
2026-04-26 15:10 26.53171 -78.83396 3617 ft 162 kts 272°
2026-04-26 15:11 26.53246 -78.84691 4279 ft 161 kts 272°
2026-04-26 15:11 26.53308 -78.85858 5055 ft 147 kts 272°
2026-04-26 15:11 26.53362 -78.86936 5575 ft 149 kts 272°
2026-04-26 15:11 26.53420 -78.88174 5874 ft 169 kts 272°
2026-04-26 15:12 26.53486 -78.89590 6024 ft 202 kts 273°
2026-04-26 15:12 26.53564 -78.91310 6136 ft 238 kts 273°
2026-04-26 15:12 26.53651 -78.93265 6325 ft 269 kts 273°
2026-04-26 15:12 26.53746 -78.95425 6820 ft 285 kts 273°
2026-04-26 15:13 26.53841 -78.97610 7654 ft 286 kts 272°
2026-04-26 15:13 26.53936 -78.99799 8559 ft 283 kts 272°
2026-04-26 15:13 26.54005 -79.01976 9439 ft 281 kts 270°
2026-04-26 15:13 26.54007 -79.04127 10267 ft 278 kts 270°
2026-04-26 15:14 26.54006 -79.05944 12407 ft 211 kts 272°
2026-04-26 15:14 26.54008 -79.07399 13257 ft 200 kts 272°
2026-04-26 15:14 26.54012 -79.08963 13193 ft 231 kts 272°
2026-04-26 15:14 26.54015 -79.10853 13290 ft 257 kts 272°
2026-04-26 15:15 26.54016 -79.12939 13359 ft 283 kts 272°
2026-04-26 15:15 26.54018 -79.15230 13418 ft 307 kts 272°
2026-04-26 15:15 26.54018 -79.17684 13464 ft 330 kts 271°
2026-04-26 15:15 26.54018 -79.20334 13505 ft 351 kts 271°
2026-04-26 15:16 26.54017 -79.23070 14178 ft 348 kts 272°
2026-04-26 15:16 26.54013 -79.25417 15893 ft 307 kts 273°
2026-04-26 15:16 26.54015 -79.27793 15934 ft 327 kts 272°
2026-04-26 15:16 26.54016 -79.29951 15978 ft 345 kts 272°
2026-04-26 15:17 26.54014 -79.32981 15992 ft 368 kts 272°
2026-04-26 15:17 26.54012 -79.34912 15990 ft 381 kts 272°
2026-04-26 15:17 26.54008 -79.39010 15978 ft 397 kts 272°
2026-04-26 15:17 26.54003 -79.42097 15969 ft 396 kts 272°
2026-04-26 15:18 26.53998 -79.45181 15961 ft 396 kts 272°
2026-04-26 15:18 26.53993 -79.48305 15959 ft 396 kts 272°
2026-04-26 15:18 26.53986 -79.51374 15955 ft 395 kts 272°
2026-04-26 15:18 26.53891 -79.54259 15943 ft 398 kts 263°
2026-04-26 15:19 26.52947 -79.57183 15971 ft 403 kts 246°
2026-04-26 15:19 26.52794 -79.57515 15973 ft 403 kts 245°